Time,TemperatureF,DewpointF,PressureIn,WindDirection,WindDirectionDegrees,WindSpeedMPH,WindSpeedGustMPH,Humidity,HourlyPrecipIn,Conditions,Clouds,dailyrainin,SoftwareType,DateUTC
2013-02-25 00:02:00,34.5,28.4,17.72,NNW,337,3.6,3.6,78,0.00,,---,0.00,VWS V14.00,2013-02-25 06:02:00,
2013-02-25 00:07:00,34.5,28.4,17.72,NNW,335,5.4,5.4,78,0.00,,---,0.00,VWS V14.00,2013-02-25 06:07:00,
2013-02-25 00:12:00,34.5,28.7,17.72,NW,310,3.1,5.4,79,0.00,,---,0.00,VWS V14.00,2013-02-25 06:12:00,
2013-02-25 00:17:00,34.5,28.7,17.72,NNW,331,3.6,3.6,79,0.00,,---,0.00,VWS V14.00,2013-02-25 06:17:00,
2013-02-25 00:22:00,34.5,29.0,17.72,NNW,342,6.3,6.3,80,0.00,,---,0.00,VWS V14.00,2013-02-25 06:22:00,
2013-02-25 00:27:00,34.5,29.0,17.72,NNW,344,2.7,2.7,80,0.00,,---,0.00,VWS V14.00,2013-02-25 06:27:00,
2013-02-25 00:32:00,34.3,29.1,17.72,NNW,329,4.9,5.8,81,0.00,,---,0.00,VWS V14.00,2013-02-25 06:32:00,
2013-02-25 00:37:00,34.3,29.1,17.72,NNW,339,4.9,4.9,81,0.00,,---,0.00,VWS V14.00,2013-02-25 06:37:00,
2013-02-25 00:42:00,34.2,29.0,17.72,NNW,335,3.1,3.6,81,0.00,,---,0.00,VWS V14.00,2013-02-25 06:42:00,
2013-02-25 00:47:00,34.0,29.1,17.72,NNW,333,2.2,4.0,82,0.00,,---,0.00,VWS V14.00,2013-02-25 06:47:00,
2013-02-25 00:52:00,33.8,28.9,17.72,NNW,338,2.7,4.0,82,0.00,,---,0.00,VWS V14.00,2013-02-25 06:52:00,
2013-02-25 00:57:00,33.6,29.0,17.72,NW,305,2.2,3.1,83,0.00,,---,0.00,VWS V14.00,2013-02-25 06:57:00,
2013-02-25 01:02:00,33.6,29.3,17.72,NNW,344,3.6,3.6,84,0.00,,---,0.00,VWS V14.00,2013-02-25 07:02:00,
2013-02-25 01:08:00,33.4,29.4,17.72,NNW,332,2.7,4.0,85,0.00,,---,0.00,VWS V14.00,2013-02-25 07:08:00,
2013-02-25 01:13:00,33.3,29.2,17.72,NNW,330,3.1,3.1,85,0.00,,---,0.00,VWS V14.00,2013-02-25 07:13:00,
2013-02-25 01:18:00,33.1,29.4,17.72,NW,323,3.6,3.6,86,0.00,,---,0.00,VWS V14.00,2013-02-25 07:18:00,
2013-02-25 01:23:00,33.1,29.4,17.72,NNW,330,0.0,3.1,86,0.00,,---,0.00,VWS V14.00,2013-02-25 07:23:00,
2013-02-25 01:28:00,33.1,29.4,17.72,NNW,343,4.0,4.0,86,0.00,,---,0.00,VWS V14.00,2013-02-25 07:28:00,
2013-02-25 01:33:00,33.1,29.6,17.72,NNW,339,3.1,3.6,87,0.00,,---,0.00,VWS V14.00,2013-02-25 07:33:00,
2013-02-25 01:38:00,33.1,29.6,17.72,NNW,342,3.1,3.1,87,0.00,,---,0.00,VWS V14.00,2013-02-25 07:38:00,
2013-02-25 01:43:00,33.1,29.9,17.72,NW,320,4.0,5.4,88,0.00,,---,0.00,VWS V14.00,2013-02-25 07:43:00,
2013-02-25 01:48:00,33.1,30.2,17.72,NNW,329,2.7,3.6,89,0.00,,---,0.00,VWS V14.00,2013-02-25 07:48:00,
2013-02-25 01:53:00,33.1,30.2,17.72,NNW,327,3.1,4.9,89,0.00,,---,0.00,VWS V14.00,2013-02-25 07:53:00,
2013-02-25 01:58:00,33.1,30.5,17.72,NW,320,3.6,3.6,90,0.00,,---,0.00,VWS V14.00,2013-02-25 07:58:00,
2013-02-25 02:03:00,33.1,30.7,17.72,NW,321,3.6,5.4,91,0.00,,---,0.00,VWS V14.00,2013-02-25 08:03:00,
2013-02-25 02:08:00,33.3,31.2,17.72,NNW,337,4.0,7.6,92,0.00,,---,0.00,VWS V14.00,2013-02-25 08:08:00,
2013-02-25 02:14:00,33.1,31.0,17.72,North,0,4.0,4.9,92,0.00,,---,0.00,VWS V14.00,2013-02-25 08:14:00,
2013-02-25 02:19:00,33.1,31.3,17.72,North,10,6.3,8.3,93,0.00,,---,0.00,VWS V14.00,2013-02-25 08:19:00,
2013-02-25 02:24:00,33.1,31.3,17.72,NNW,338,2.7,3.6,93,0.00,,---,0.00,VWS V14.00,2013-02-25 08:24:00,
2013-02-25 02:29:00,33.1,31.3,17.72,NNW,344,5.4,5.8,93,0.00,,---,0.00,VWS V14.00,2013-02-25 08:29:00,
2013-02-25 02:34:00,33.1,31.3,17.72,NNE,13,4.9,5.4,93,0.00,,---,0.00,VWS V14.00,2013-02-25 08:34:00,
2013-02-25 02:39:00,33.1,31.5,17.72,North,2,2.7,5.8,94,0.00,,---,0.00,VWS V14.00,2013-02-25 08:39:00,
2013-02-25 02:44:00,33.1,31.5,17.72,NNW,334,5.4,5.4,94,0.00,,---,0.00,VWS V14.00,2013-02-25 08:44:00,
2013-02-25 02:49:00,33.1,31.5,17.72,North,357,4.0,8.3,94,0.00,,---,0.00,VWS V14.00,2013-02-25 08:49:00,
2013-02-25 02:54:00,33.1,31.5,17.72,North,6,2.7,4.0,94,0.00,,---,0.00,VWS V14.00,2013-02-25 08:54:00,
2013-02-25 02:59:00,32.9,31.4,17.72,North,357,3.6,4.9,94,0.00,,---,0.00,VWS V14.00,2013-02-25 08:59:00,
2013-02-25 03:05:00,32.9,31.4,17.72,North,0,3.1,4.5,94,0.00,,---,0.00,VWS V14.00,2013-02-25 09:05:00,
2013-02-25 03:10:00,32.9,31.4,17.72,North,4,0.0,0.0,94,0.00,,---,0.00,VWS V14.00,2013-02-25 09:10:00,
2013-02-25 03:15:00,32.9,31.4,17.72,North,349,0.0,0.0,94,0.00,,---,0.00,VWS V14.00,2013-02-25 09:15:00,
2013-02-25 03:20:00,32.9,31.4,17.72,North,4,0.0,0.0,94,0.00,,---,0.00,VWS V14.00,2013-02-25 09:20:00,
2013-02-25 03:25:00,32.9,31.4,17.72,North,8,0.0,0.0,94,0.00,,---,0.00,VWS V14.00,2013-02-25 09:25:00,
2013-02-25 03:30:00,32.9,31.4,17.72,North,353,0.0,0.0,94,0.00,,---,0.00,VWS V14.00,2013-02-25 09:30:00,
2013-02-25 03:35:00,32.9,31.4,17.72,North,8,0.0,0.0,94,0.00,,---,0.00,VWS V14.00,2013-02-25 09:35:00,
2013-02-25 03:40:00,32.7,31.5,17.72,North,3,0.0,0.0,95,0.00,,---,0.00,VWS V14.00,2013-02-25 09:40:00,
2013-02-25 03:45:00,32.7,31.5,17.72,NNE,20,0.0,0.0,95,0.00,,---,0.00,VWS V14.00,2013-02-25 09:45:00,
2013-02-25 03:50:00,32.7,31.5,17.72,North,357,0.0,0.0,95,0.00,,---,0.00,VWS V14.00,2013-02-25 09:50:00,
2013-02-25 03:55:00,32.7,31.5,17.72,North,2,0.0,0.0,95,0.00,,---,0.00,VWS V14.00,2013-02-25 09:55:00,
2013-02-25 04:00:00,32.7,31.5,17.72,North,0,0.0,0.0,95,0.00,,---,0.00,VWS V14.00,2013-02-25 10:00:00,
2013-02-25 04:06:00,32.7,31.5,17.72,North,3,0.0,0.0,95,0.00,,---,0.00,VWS V14.00,2013-02-25 10:06:00,
2013-02-25 04:11:00,32.7,31.5,17.72,North,0,0.0,0.0,95,0.00,,---,0.00,VWS V14.00,2013-02-25 10:11:00,
2013-02-25 04:16:00,32.7,31.5,17.72,North,1,0.0,0.0,95,0.00,,---,0.00,VWS V14.00,2013-02-25 10:16:00,
2013-02-25 04:21:00,32.7,31.5,17.72,North,4,0.0,0.0,95,0.00,,---,0.00,VWS V14.00,2013-02-25 10:21:00,
2013-02-25 04:26:00,32.7,31.5,17.72,North,8,0.0,0.0,95,0.00,,---,0.00,VWS V14.00,2013-02-25 10:26:00,
2013-02-25 04:31:00,32.7,31.5,17.72,NNW,344,0.0,0.0,95,0.00,,---,0.00,VWS V14.00,2013-02-25 10:31:00,
2013-02-25 04:36:00,32.7,31.5,17.72,NNW,342,0.0,0.0,95,0.00,,---,0.00,VWS V14.00,2013-02-25 10:36:00,
2013-02-25 04:41:00,32.7,31.5,17.72,North,353,0.0,0.0,95,0.00,,---,0.00,VWS V14.00,2013-02-25 10:41:00,
2013-02-25 04:46:00,32.7,31.5,17.72,North,353,0.0,0.0,95,0.00,,---,0.00,VWS V14.00,2013-02-25 10:46:00,
2013-02-25 04:51:00,32.7,31.7,17.72,North,353,0.0,0.0,96,0.00,,---,0.00,VWS V14.00,2013-02-25 10:51:00,
2013-02-25 04:57:00,32.7,31.7,17.72,North,1,0.0,0.0,96,0.00,,---,0.00,VWS V14.00,2013-02-25 10:57:00,
2013-02-25 05:02:00,32.7,31.7,17.72,NNW,327,0.0,0.0,96,0.00,,---,0.00,VWS V14.00,2013-02-25 11:02:00,
2013-02-25 05:07:00,32.5,31.5,17.72,NNW,342,0.0,0.0,96,0.00,,---,0.00,VWS V14.00,2013-02-25 11:07:00,
2013-02-25 05:12:00,32.5,31.5,17.72,North,0,0.0,0.0,96,0.00,,---,0.00,VWS V14.00,2013-02-25 11:12:00,
2013-02-25 05:17:00,32.5,31.5,17.72,North,0,0.0,0.0,96,0.00,,---,0.00,VWS V14.00,2013-02-25 11:17:00,
2013-02-25 05:22:00,32.5,31.5,17.72,North,353,0.0,0.0,96,0.00,,---,0.00,VWS V14.00,2013-02-25 11:22:00,
2013-02-25 05:27:00,32.5,31.5,17.72,NE,35,0.0,0.0,96,0.00,,---,0.00,VWS V14.00,2013-02-25 11:27:00,
2013-02-25 05:32:00,32.5,31.5,17.72,North,3,0.0,0.0,96,0.00,,---,0.00,VWS V14.00,2013-02-25 11:32:00,
2013-02-25 05:37:00,32.5,31.5,17.72,NW,326,0.0,0.0,96,0.00,,---,0.00,VWS V14.00,2013-02-25 11:37:00,
2013-02-25 05:42:00,32.5,31.5,17.72,North,353,0.0,0.0,96,0.00,,---,0.00,VWS V14.00,2013-02-25 11:42:00,
2013-02-25 05:47:00,32.5,31.5,17.72,North,357,0.0,0.0,96,0.00,,---,0.00,VWS V14.00,2013-02-25 11:47:00,
2013-02-25 05:53:00,32.5,31.5,17.72,North,353,0.0,0.0,96,0.00,,---,0.00,VWS V14.00,2013-02-25 11:53:00,
2013-02-25 05:58:00,32.5,31.5,17.72,North,6,0.0,0.0,96,0.00,,---,0.00,VWS V14.00,2013-02-25 11:58:00,
2013-02-25 06:03:00,32.5,31.8,17.72,North,357,0.0,0.0,97,0.00,,---,0.00,VWS V14.00,2013-02-25 12:03:00,
2013-02-25 06:08:00,32.5,31.8,17.72,North,0,0.0,0.0,97,0.00,,---,0.00,VWS V14.00,2013-02-25 12:08:00,
2013-02-25 06:13:00,32.5,31.8,17.72,North,357,0.0,0.0,97,0.00,,---,0.00,VWS V14.00,2013-02-25 12:13:00,
2013-02-25 06:18:00,32.5,31.8,17.72,NNW,348,0.0,0.0,97,0.00,,---,0.00,VWS V14.00,2013-02-25 12:18:00,
2013-02-25 06:23:00,32.4,31.6,17.72,NW,319,0.0,0.0,97,0.00,,---,0.00,VWS V14.00,2013-02-25 12:23:00,
2013-02-25 06:28:00,32.4,31.6,17.72,North,7,0.0,0.0,97,0.00,,---,0.00,VWS V14.00,2013-02-25 12:28:00,
2013-02-25 06:33:00,32.2,31.4,17.72,North,0,0.0,0.0,97,0.00,,---,0.00,VWS V14.00,2013-02-25 12:33:00,
2013-02-25 06:38:00,32.2,31.4,17.72,North,2,0.0,0.0,97,0.00,,---,0.00,VWS V14.00,2013-02-25 12:38:00,
2013-02-25 06:43:00,32.2,31.4,17.72,NNW,348,0.0,0.0,97,0.00,,---,0.00,VWS V14.00,2013-02-25 12:43:00,
2013-02-25 06:48:00,32.2,31.4,17.72,NNE,13,0.0,0.0,97,0.00,,---,0.00,VWS V14.00,2013-02-25 12:48:00,
2013-02-25 06:53:00,32.2,31.4,17.72,NW,325,0.0,0.0,97,0.00,,---,0.00,VWS V14.00,2013-02-25 12:53:00,
2013-02-25 06:58:00,32.2,31.4,17.72,North,349,0.0,0.0,97,0.00,,---,0.00,VWS V14.00,2013-02-25 12:58:00,
2013-02-25 07:03:00,32.2,31.4,17.72,NNE,15,0.0,0.0,97,0.00,,---,0.00,VWS V14.00,2013-02-25 13:03:00,
2013-02-25 07:09:00,32.2,31.4,17.72,NNW,341,0.0,0.0,97,0.00,,---,0.00,VWS V14.00,2013-02-25 13:09:00,
2013-02-25 07:14:00,32.2,31.4,17.72,North,7,0.0,0.0,97,0.00,,---,0.00,VWS V14.00,2013-02-25 13:14:00,
2013-02-25 07:19:00,32.2,31.4,17.72,NW,314,0.0,0.0,97,0.00,,---,0.00,VWS V14.00,2013-02-25 13:19:00,
2013-02-25 07:24:00,32.2,31.4,17.72,North,353,0.0,0.0,97,0.00,,---,0.00,VWS V14.00,2013-02-25 13:24:00,
2013-02-25 07:29:00,32.2,31.4,17.72,North,357,0.0,0.0,97,0.00,,---,0.00,VWS V14.00,2013-02-25 13:29:00,
2013-02-25 07:34:00,32.2,31.4,17.72,NNW,346,0.0,0.0,97,0.00,,---,0.00,VWS V14.00,2013-02-25 13:34:00,
2013-02-25 07:39:00,32.2,31.4,17.72,NNW,346,0.0,0.0,97,0.00,,---,0.00,VWS V14.00,2013-02-25 13:39:00,
2013-02-25 07:44:00,32.2,31.4,17.72,NNE,31,0.0,0.0,97,0.00,,---,0.00,VWS V14.00,2013-02-25 13:44:00,
2013-02-25 07:49:00,32.2,31.4,17.72,NNW,344,0.0,0.0,97,0.00,,---,0.00,VWS V14.00,2013-02-25 13:49:00,
2013-02-25 07:54:00,32.2,31.4,17.72,NNW,333,0.0,0.0,97,0.00,,---,0.00,VWS V14.00,2013-02-25 13:54:00,
2013-02-25 07:59:00,32.2,31.4,17.72,North,0,0.0,0.0,97,0.00,,---,0.00,VWS V14.00,2013-02-25 13:59:00,
2013-02-25 08:04:00,32.2,31.4,17.72,NNW,337,0.0,0.0,97,0.00,,---,0.00,VWS V14.00,2013-02-25 14:04:00,
2013-02-25 08:10:00,32.2,31.4,17.72,North,10,0.0,0.0,97,0.00,,---,0.00,VWS V14.00,2013-02-25 14:10:00,
2013-02-25 08:15:00,32.4,31.6,17.72,NNW,345,0.0,0.0,97,0.00,,---,0.00,VWS V14.00,2013-02-25 14:15:00,
2013-02-25 08:20:00,32.4,31.6,17.72,NW,323,0.0,0.0,97,0.00,,---,0.00,VWS V14.00,2013-02-25 14:20:00,
2013-02-25 08:26:00,32.4,31.6,17.72,NNW,345,0.0,0.0,97,0.00,,---,0.00,VWS V14.00,2013-02-25 14:26:00,
2013-02-25 08:31:00,32.5,31.8,17.72,North,0,0.0,0.0,97,0.00,,---,0.00,VWS V14.00,2013-02-25 14:31:00,
2013-02-25 08:36:00,32.5,31.8,17.72,NNW,343,0.0,0.0,97,0.00,,---,0.00,VWS V14.00,2013-02-25 14:36:00,
2013-02-25 08:41:00,32.5,31.8,17.72,WNW,303,0.0,0.0,97,0.00,,---,0.00,VWS V14.00,2013-02-25 14:41:00,
2013-02-25 08:46:00,32.5,31.8,17.72,NNW,345,0.0,0.0,97,0.00,,---,0.00,VWS V14.00,2013-02-25 14:46:00,
2013-02-25 08:51:00,32.7,32.0,17.72,NNW,336,0.0,0.0,97,0.00,,---,0.00,VWS V14.00,2013-02-25 14:51:00,
2013-02-25 08:56:00,32.7,32.0,17.72,North,349,0.0,0.0,97,0.00,,---,0.00,VWS V14.00,2013-02-25 14:56:00,
2013-02-25 09:01:00,32.7,31.7,17.72,NNW,346,0.0,0.0,96,0.00,,---,0.00,VWS V14.00,2013-02-25 15:01:00,
2013-02-25 09:07:00,32.9,31.9,17.72,NNW,339,0.0,0.0,96,0.00,,---,0.00,VWS V14.00,2013-02-25 15:07:00,
2013-02-25 09:12:00,32.9,31.9,17.72,North,353,0.0,0.0,96,0.00,,---,0.00,VWS V14.00,2013-02-25 15:12:00,
2013-02-25 09:17:00,33.1,32.1,17.72,NNW,336,0.0,0.0,96,0.00,,---,0.00,VWS V14.00,2013-02-25 15:17:00,
2013-02-25 09:22:00,33.1,32.1,17.72,North,353,0.0,0.0,96,0.00,,---,0.00,VWS V14.00,2013-02-25 15:22:00,
2013-02-25 09:27:00,33.3,32.2,17.72,NNW,343,0.0,0.0,96,0.00,,---,0.00,VWS V14.00,2013-02-25 15:27:00,
2013-02-25 09:32:00,33.3,32.2,17.72,North,353,0.0,0.0,96,0.00,,---,0.00,VWS V14.00,2013-02-25 15:32:00,
2013-02-25 09:37:00,33.4,32.2,17.72,North,353,0.0,0.0,95,0.00,,---,0.00,VWS V14.00,2013-02-25 15:37:00,
2013-02-25 09:42:00,33.6,32.3,17.72,NNW,341,0.0,0.0,95,0.00,,---,0.00,VWS V14.00,2013-02-25 15:42:00,
2013-02-25 09:47:00,33.8,32.3,17.72,North,7,0.0,0.0,94,0.00,,---,0.00,VWS V14.00,2013-02-25 15:47:00,
2013-02-25 09:52:00,33.8,32.3,17.72,North,0,0.0,0.0,94,0.00,,---,0.00,VWS V14.00,2013-02-25 15:52:00,
2013-02-25 09:57:00,34.0,32.2,17.72,NNW,342,0.0,0.0,93,0.00,,---,0.00,VWS V14.00,2013-02-25 15:57:00,
2013-02-25 10:03:00,34.0,31.9,17.72,NW,319,0.0,0.0,92,0.00,,---,0.00,VWS V14.00,2013-02-25 16:03:00,
2013-02-25 10:07:00,34.3,32.0,17.72,North,0,0.0,0.0,91,0.00,,---,0.00,VWS V14.00,2013-02-25 16:07:00,
2013-02-25 10:13:00,34.5,31.9,17.72,NW,319,0.0,0.0,90,0.00,,---,0.00,VWS V14.00,2013-02-25 16:13:00,
2013-02-25 10:18:00,34.5,31.6,17.72,North,353,0.0,0.0,89,0.00,,---,0.00,VWS V14.00,2013-02-25 16:18:00,
2013-02-25 10:23:00,34.7,31.5,17.72,NW,325,0.0,0.0,88,0.00,,---,0.00,VWS V14.00,2013-02-25 16:23:00,
2013-02-25 10:28:00,34.7,31.2,17.72,North,353,0.0,0.0,87,0.00,,---,0.00,VWS V14.00,2013-02-25 16:28:00,
2013-02-25 10:33:00,34.9,30.8,17.72,North,353,0.0,0.0,85,0.00,,---,0.00,VWS V14.00,2013-02-25 16:33:00,
2013-02-25 10:38:00,34.9,30.5,17.72,North,0,0.0,0.0,84,0.00,,---,0.00,VWS V14.00,2013-02-25 16:38:00,
2013-02-25 10:43:00,35.1,30.1,17.72,NW,316,0.0,0.0,82,0.00,,---,0.00,VWS V14.00,2013-02-25 16:43:00,
2013-02-25 10:48:00,35.2,30.0,17.72,North,357,0.0,0.0,81,0.00,,---,0.00,VWS V14.00,2013-02-25 16:48:00,
2013-02-25 10:53:00,35.4,30.2,17.72,NNW,343,0.0,0.0,81,0.00,,---,0.00,VWS V14.00,2013-02-25 16:53:00,
2013-02-25 10:58:00,35.8,29.9,17.72,NNW,341,0.0,0.0,79,0.00,,---,0.00,VWS V14.00,2013-02-25 16:58:00,
2013-02-25 11:04:00,36.0,29.8,17.72,North,353,0.0,0.0,78,0.00,,---,0.00,VWS V14.00,2013-02-25 17:04:00,
2013-02-25 11:09:00,36.1,29.6,17.72,North,357,0.0,0.0,77,0.00,,---,0.00,VWS V14.00,2013-02-25 17:09:00,
2013-02-25 11:14:00,36.1,29.0,17.72,NNW,338,0.0,0.0,75,0.00,,---,0.00,VWS V14.00,2013-02-25 17:14:00,
2013-02-25 11:19:00,36.3,29.2,17.72,North,1,5.4,12.3,75,0.00,,---,0.00,VWS V14.00,2013-02-25 17:19:00,
2013-02-25 11:24:00,36.3,28.8,17.72,NNW,346,14.1,14.1,74,0.00,,---,0.00,VWS V14.00,2013-02-25 17:24:00,
2013-02-25 11:29:00,36.3,28.5,17.72,NNE,24,8.3,11.9,73,0.00,,---,0.00,VWS V14.00,2013-02-25 17:29:00,
2013-02-25 11:34:00,36.3,28.8,17.72,North,3,6.3,6.3,74,0.00,,---,0.00,VWS V14.00,2013-02-25 17:34:00,
2013-02-25 11:39:00,36.3,28.8,17.72,NNW,344,3.1,6.7,74,0.00,,---,0.00,VWS V14.00,2013-02-25 17:39:00,
2013-02-25 11:44:00,36.5,29.0,17.72,North,353,2.7,10.5,74,0.00,,---,0.00,VWS V14.00,2013-02-25 17:44:00,
2013-02-25 11:49:00,36.5,29.0,17.72,NNE,14,6.3,7.6,74,0.00,,---,0.00,VWS V14.00,2013-02-25 17:49:00,
2013-02-25 11:54:00,36.7,29.2,17.72,North,353,5.4,6.3,74,0.00,,---,0.00,VWS V14.00,2013-02-25 17:54:00,
2013-02-25 11:59:00,36.9,29.4,17.72,North,350,6.3,7.6,74,0.00,,---,0.00,VWS V14.00,2013-02-25 17:59:00,
2013-02-25 12:05:00,36.7,28.9,17.72,North,0,6.3,6.3,73,0.00,,---,0.00,VWS V14.00,2013-02-25 18:05:00,
2013-02-25 12:10:00,36.7,28.9,17.72,North,6,8.7,10.1,73,0.00,,---,0.00,VWS V14.00,2013-02-25 18:10:00,
2013-02-25 12:15:00,36.7,28.9,17.72,North,357,5.4,7.6,73,0.00,,---,0.00,VWS V14.00,2013-02-25 18:15:00,
2013-02-25 12:20:00,36.7,29.2,17.72,NNE,27,8.7,10.5,74,0.00,,---,0.00,VWS V14.00,2013-02-25 18:20:00,
2013-02-25 12:25:00,36.5,28.7,17.72,NNW,341,8.1,8.1,73,0.00,,---,0.00,VWS V14.00,2013-02-25 18:25:00,
2013-02-25 12:30:00,36.5,29.0,17.72,North,0,5.8,10.5,74,0.00,,---,0.00,VWS V14.00,2013-02-25 18:30:00,
2013-02-25 12:35:00,36.7,29.2,17.72,North,357,6.3,8.3,74,0.00,,---,0.00,VWS V14.00,2013-02-25 18:35:00,
2013-02-25 12:40:00,36.3,28.5,17.72,North,0,6.3,6.3,73,0.00,,---,0.00,VWS V14.00,2013-02-25 18:40:00,
2013-02-25 12:45:00,36.3,28.2,17.72,North,1,8.7,8.7,72,0.00,,---,0.00,VWS V14.00,2013-02-25 18:45:00,
2013-02-25 12:50:00,36.3,28.5,17.72,North,3,7.6,10.5,73,0.00,,---,0.00,VWS V14.00,2013-02-25 18:50:00,
2013-02-25 12:56:00,36.5,28.4,17.72,NNE,14,5.8,6.3,72,0.00,,---,0.00,VWS V14.00,2013-02-25 18:56:00,
2013-02-25 13:01:00,36.5,28.4,17.72,NNE,30,8.3,8.3,72,0.00,,---,0.00,VWS V14.00,2013-02-25 19:01:00,
2013-02-25 13:06:00,36.5,28.4,17.72,NNE,15,6.3,13.6,72,0.04,,---,0.04,VWS V14.00,2013-02-25 19:06:00,
2013-02-25 13:11:00,36.5,28.4,17.72,North,1,8.3,8.3,72,0.04,,---,0.04,VWS V14.00,2013-02-25 19:11:00,
2013-02-25 13:16:00,36.7,28.5,17.72,North,0,7.6,7.6,72,0.04,,---,0.04,VWS V14.00,2013-02-25 19:16:00,
2013-02-25 13:21:00,36.9,28.7,17.72,NNE,14,8.7,8.7,72,0.04,,---,0.04,VWS V14.00,2013-02-25 19:21:00,
2013-02-25 13:26:00,36.7,28.2,17.72,NNW,345,8.3,11.0,71,0.08,,---,0.08,VWS V14.00,2013-02-25 19:26:00,
2013-02-25 13:31:00,36.7,27.8,17.72,NNE,13,5.4,7.6,70,0.08,,---,0.08,VWS V14.00,2013-02-25 19:31:00,
2013-02-25 13:36:00,36.5,28.0,17.72,NNE,17,8.1,8.1,71,0.08,,---,0.08,VWS V14.00,2013-02-25 19:36:00,
2013-02-25 13:41:00,36.5,28.0,17.72,North,350,7.6,8.7,71,0.08,,---,0.08,VWS V14.00,2013-02-25 19:41:00,
2013-02-25 13:46:00,36.3,27.5,17.72,North,353,6.3,8.1,70,0.12,,---,0.12,VWS V14.00,2013-02-25 19:46:00,
2013-02-25 13:52:00,36.3,27.8,17.72,NNW,344,5.8,12.8,71,0.12,,---,0.12,VWS V14.00,2013-02-25 19:52:00,
2013-02-25 13:57:00,36.3,27.8,17.72,NNW,346,5.8,8.1,71,0.12,,---,0.12,VWS V14.00,2013-02-25 19:57:00,
2013-02-25 14:02:00,36.3,27.8,17.72,North,353,5.8,8.3,71,0.12,,---,0.12,VWS V14.00,2013-02-25 20:02:00,
2013-02-25 14:07:00,36.3,28.2,17.72,North,353,4.9,5.4,72,0.12,,---,0.16,VWS V14.00,2013-02-25 20:07:00,
2013-02-25 14:12:00,36.5,28.4,17.72,NE,50,8.7,8.7,72,0.12,,---,0.16,VWS V14.00,2013-02-25 20:12:00,
2013-02-25 14:17:00,36.7,28.5,17.72,North,353,5.4,8.7,72,0.12,,---,0.16,VWS V14.00,2013-02-25 20:17:00,
2013-02-25 14:22:00,36.7,28.5,17.72,North,357,7.6,7.6,72,0.08,,---,0.16,VWS V14.00,2013-02-25 20:22:00,
2013-02-25 14:27:00,37.0,28.9,17.72,North,353,5.4,5.4,72,0.08,,---,0.16,VWS V14.00,2013-02-25 20:27:00,
2013-02-25 14:32:00,37.0,28.5,17.72,North,8,7.2,7.2,71,0.12,,---,0.20,VWS V14.00,2013-02-25 20:32:00,
2013-02-25 14:37:00,37.0,28.2,17.72,NNE,15,4.9,5.4,70,0.12,,---,0.20,VWS V14.00,2013-02-25 20:37:00,
2013-02-25 14:42:00,37.2,28.4,17.72,NNW,340,5.4,5.8,70,0.08,,---,0.20,VWS V14.00,2013-02-25 20:42:00,
2013-02-25 14:48:00,37.2,28.0,17.72,NNW,342,5.4,8.7,69,0.08,,---,0.20,VWS V14.00,2013-02-25 20:48:00,
2013-02-25 14:53:00,37.0,27.8,17.72,North,357,8.1,8.3,69,0.08,,---,0.20,VWS V14.00,2013-02-25 20:53:00,
2013-02-25 14:58:00,37.0,27.8,17.72,North,9,5.4,5.4,69,0.12,,---,0.24,VWS V14.00,2013-02-25 20:58:00,
2013-02-25 15:03:00,37.0,27.8,17.72,North,0,3.1,8.1,69,0.12,,---,0.24,VWS V14.00,2013-02-25 21:03:00,
2013-02-25 15:08:00,36.9,27.7,17.72,NNE,29,10.5,10.5,69,0.08,,---,0.24,VWS V14.00,2013-02-25 21:08:00,
2013-02-25 15:13:00,36.7,27.5,17.72,NW,325,6.3,7.6,69,0.08,,---,0.24,VWS V14.00,2013-02-25 21:13:00,
2013-02-25 15:18:00,36.7,27.8,17.72,NNE,24,5.8,5.8,70,0.08,,---,0.24,VWS V14.00,2013-02-25 21:18:00,
2013-02-25 15:23:00,36.5,27.7,17.72,North,357,4.9,5.4,70,0.08,,---,0.24,VWS V14.00,2013-02-25 21:23:00,
2013-02-25 15:28:00,36.5,27.7,17.72,NNW,342,10.5,10.5,70,0.08,,---,0.24,VWS V14.00,2013-02-25 21:28:00,
2013-02-25 15:34:00,36.3,27.5,17.72,NNW,344,4.0,8.1,70,0.04,,---,0.24,VWS V14.00,2013-02-25 21:34:00,
2013-02-25 15:39:00,36.1,27.3,17.72,NNE,25,5.4,6.3,70,0.04,,---,0.24,VWS V14.00,2013-02-25 21:39:00,
2013-02-25 15:44:00,35.8,27.3,17.72,NNE,18,10.5,10.5,71,0.04,,---,0.24,VWS V14.00,2013-02-25 21:44:00,
2013-02-25 15:49:00,35.6,27.5,17.72,NNE,19,3.6,5.8,72,0.04,,---,0.24,VWS V14.00,2013-02-25 21:49:00,
2013-02-25 15:54:00,35.6,27.8,17.72,North,349,8.1,8.1,73,0.08,,---,0.28,VWS V14.00,2013-02-25 21:54:00,
2013-02-25 15:59:00,35.4,28.0,17.72,NW,315,4.0,5.8,74,0.04,,---,0.28,VWS V14.00,2013-02-25 21:59:00,
2013-02-25 16:04:00,35.4,28.0,17.72,WNW,301,5.8,5.8,74,0.04,,---,0.28,VWS V14.00,2013-02-25 22:04:00,
2013-02-25 16:09:00,35.4,28.0,17.72,NW,320,6.3,6.3,74,0.04,,---,0.28,VWS V14.00,2013-02-25 22:09:00,
2013-02-25 16:14:00,35.4,27.6,17.72,NW,307,5.8,9.6,73,0.04,,---,0.28,VWS V14.00,2013-02-25 22:14:00,
2013-02-25 16:19:00,35.6,27.8,17.72,NNW,328,5.4,5.8,73,0.04,,---,0.28,VWS V14.00,2013-02-25 22:19:00,
2013-02-25 16:24:00,35.6,27.5,17.72,NW,324,3.6,8.1,72,0.04,,---,0.28,VWS V14.00,2013-02-25 22:24:00,
2013-02-25 16:30:00,35.8,27.6,17.72,NNW,328,5.4,10.1,72,0.04,,---,0.28,VWS V14.00,2013-02-25 22:30:00,
2013-02-25 16:35:00,35.8,27.6,17.72,NNW,338,7.6,8.1,72,0.04,,---,0.28,VWS V14.00,2013-02-25 22:35:00,
2013-02-25 16:40:00,35.8,27.3,17.72,NNW,331,7.6,7.6,71,0.04,,---,0.28,VWS V14.00,2013-02-25 22:40:00,
2013-02-25 16:45:00,36.0,27.5,17.72,North,353,7.6,7.6,71,0.04,,---,0.28,VWS V14.00,2013-02-25 22:45:00,
2013-02-25 16:50:00,36.0,27.1,17.72,NW,319,11.0,11.0,70,0.04,,---,0.28,VWS V14.00,2013-02-25 22:50:00,
2013-02-25 16:55:00,36.1,27.0,17.72,NNW,327,4.0,5.8,69,0.00,,---,0.28,VWS V14.00,2013-02-25 22:55:00,
2013-02-25 17:00:00,36.3,26.8,17.72,NW,317,5.8,6.3,68,0.00,,---,0.28,VWS V14.00,2013-02-25 23:00:00,
2013-02-25 17:05:00,36.1,26.6,17.72,NW,326,4.0,6.3,68,0.00,,---,0.28,VWS V14.00,2013-02-25 23:05:00,
2013-02-25 17:10:00,36.1,26.6,17.72,NW,322,10.5,11.0,68,0.00,,---,0.28,VWS V14.00,2013-02-25 23:10:00,
2013-02-25 17:15:00,36.0,26.4,17.72,North,353,5.8,5.8,68,0.00,,---,0.28,VWS V14.00,2013-02-25 23:15:00,
2013-02-25 17:21:00,35.8,26.3,17.72,NW,306,7.6,7.6,68,0.00,,---,0.28,VWS V14.00,2013-02-25 23:21:00,
2013-02-25 17:26:00,35.8,26.3,17.72,NNW,345,4.0,5.4,68,0.00,,---,0.28,VWS V14.00,2013-02-25 23:26:00,
2013-02-25 17:31:00,35.8,26.3,17.72,NNW,348,3.6,5.8,68,0.00,,---,0.28,VWS V14.00,2013-02-25 23:31:00,
2013-02-25 17:36:00,35.6,26.5,17.72,NW,312,5.4,9.2,69,0.00,,---,0.28,VWS V14.00,2013-02-25 23:36:00,
2013-02-25 17:41:00,35.6,26.5,17.72,NNW,346,7.6,7.6,69,0.00,,---,0.28,VWS V14.00,2013-02-25 23:41:00,
2013-02-25 17:46:00,35.6,26.5,17.72,NW,313,5.8,6.3,69,0.00,,---,0.28,VWS V14.00,2013-02-25 23:46:00,
2013-02-25 17:51:00,35.4,26.3,17.72,North,353,6.3,8.1,69,0.00,,---,0.28,VWS V14.00,2013-02-25 23:51:00,
2013-02-25 17:56:00,35.4,26.3,17.72,NW,325,5.8,7.6,69,0.00,,---,0.28,VWS V14.00,2013-02-25 23:56:00,
2013-02-25 18:01:00,35.1,25.6,17.72,NNW,327,6.3,8.3,68,0.00,,---,0.28,VWS V14.00,2013-02-26 00:01:00,
2013-02-25 18:07:00,35.1,25.6,17.72,NNW,327,5.8,7.6,68,0.00,,---,0.28,VWS V14.00,2013-02-26 00:07:00,
2013-02-25 18:12:00,34.9,25.8,17.72,North,353,4.0,8.3,69,0.00,,---,0.28,VWS V14.00,2013-02-26 00:12:00,
2013-02-25 18:17:00,34.7,25.6,17.72,NNW,335,5.4,8.7,69,0.00,,---,0.28,VWS V14.00,2013-02-26 00:17:00,
2013-02-25 18:22:00,34.5,25.4,17.72,NW,316,2.7,8.3,69,0.00,,---,0.28,VWS V14.00,2013-02-26 00:22:00,
2013-02-25 18:27:00,34.5,25.4,17.72,NNW,346,3.6,8.3,69,0.00,,---,0.28,VWS V14.00,2013-02-26 00:27:00,
2013-02-25 18:32:00,34.5,25.8,17.72,NNW,332,5.4,10.5,70,0.00,,---,0.28,VWS V14.00,2013-02-26 00:32:00,
2013-02-25 18:37:00,34.3,25.2,17.72,North,357,3.1,6.3,69,0.00,,---,0.28,VWS V14.00,2013-02-26 00:37:00,
2013-02-25 18:42:00,34.3,25.2,17.72,NNW,334,5.4,6.3,69,0.00,,---,0.28,VWS V14.00,2013-02-26 00:42:00,
2013-02-25 18:47:00,34.3,25.2,17.72,NW,313,4.0,6.3,69,0.00,,---,0.28,VWS V14.00,2013-02-26 00:47:00,
2013-02-25 18:52:00,34.2,25.1,17.72,NW,315,6.3,6.3,69,0.00,,---,0.28,VWS V14.00,2013-02-26 00:52:00,
2013-02-25 18:57:00,34.2,25.1,17.72,NNW,341,5.4,8.7,69,0.00,,---,0.28,VWS V14.00,2013-02-26 00:57:00,
2013-02-25 19:03:00,34.0,24.9,17.72,NNW,334,5.8,6.3,69,0.00,,---,0.28,VWS V14.00,2013-02-26 01:03:00,
2013-02-25 19:08:00,34.0,24.9,17.72,North,0,5.4,5.4,69,0.00,,---,0.28,VWS V14.00,2013-02-26 01:08:00,
2013-02-25 19:13:00,34.0,25.2,17.72,NNW,343,6.3,8.3,70,0.00,,---,0.28,VWS V14.00,2013-02-26 01:13:00,
2013-02-25 19:18:00,33.8,25.1,17.72,North,353,6.3,6.3,70,0.00,,---,0.28,VWS V14.00,2013-02-26 01:18:00,
2013-02-25 19:23:00,33.8,25.1,17.72,NNW,327,6.3,6.3,70,0.00,,---,0.28,VWS V14.00,2013-02-26 01:23:00,
2013-02-25 19:28:00,33.8,25.1,17.72,NW,318,6.3,6.3,70,0.00,,---,0.28,VWS V14.00,2013-02-26 01:28:00,
2013-02-25 19:33:00,33.6,25.2,17.72,NNW,333,2.7,3.6,71,0.00,,---,0.28,VWS V14.00,2013-02-26 01:33:00,
2013-02-25 19:38:00,33.6,25.2,17.72,NNW,334,5.4,6.3,71,0.00,,---,0.28,VWS V14.00,2013-02-26 01:38:00,
2013-02-25 19:43:00,33.6,25.2,17.72,North,353,10.1,10.1,71,0.00,,---,0.28,VWS V14.00,2013-02-26 01:43:00,
2013-02-25 19:49:00,33.6,25.2,17.72,WNW,293,8.7,8.7,71,0.00,,---,0.28,VWS V14.00,2013-02-26 01:49:00,
2013-02-25 19:54:00,33.6,25.2,17.72,NNW,339,5.8,5.8,71,0.00,,---,0.28,VWS V14.00,2013-02-26 01:54:00,
2013-02-25 19:59:00,33.6,25.2,17.72,WNW,290,5.4,5.4,71,0.00,,---,0.28,VWS V14.00,2013-02-26 01:59:00,
2013-02-25 20:04:00,33.6,25.2,17.72,North,3,5.8,6.3,71,0.00,,---,0.28,VWS V14.00,2013-02-26 02:04:00,
2013-02-25 20:09:00,33.6,25.6,17.72,North,0,8.7,8.7,72,0.00,,---,0.28,VWS V14.00,2013-02-26 02:09:00,
2013-02-25 20:14:00,33.6,25.6,17.72,NW,316,4.0,4.0,72,0.00,,---,0.28,VWS V14.00,2013-02-26 02:14:00,
2013-02-25 20:19:00,33.8,25.4,17.72,North,2,5.8,6.3,71,0.00,,---,0.28,VWS V14.00,2013-02-26 02:19:00,
2013-02-25 20:24:00,33.8,25.4,17.72,North,0,2.7,5.8,71,0.00,,---,0.28,VWS V14.00,2013-02-26 02:24:00,
2013-02-25 20:29:00,33.8,25.4,17.72,NNW,339,6.3,6.3,71,0.00,,---,0.28,VWS V14.00,2013-02-26 02:29:00,
2013-02-25 20:34:00,33.8,25.4,17.72,North,357,6.3,6.3,71,0.00,,---,0.28,VWS V14.00,2013-02-26 02:34:00,
2013-02-25 20:40:00,33.8,25.4,17.72,North,0,3.1,4.0,71,0.00,,---,0.28,VWS V14.00,2013-02-26 02:40:00,
2013-02-25 20:45:00,33.8,25.4,17.72,North,357,5.8,5.8,71,0.00,,---,0.28,VWS V14.00,2013-02-26 02:45:00,
2013-02-25 20:50:00,33.8,25.4,17.72,NW,319,3.1,6.3,71,0.00,,---,0.28,VWS V14.00,2013-02-26 02:50:00,
2013-02-25 20:55:00,33.8,25.4,17.72,North,349,8.1,8.1,71,0.00,,---,0.28,VWS V14.00,2013-02-26 02:55:00,
2013-02-25 21:00:00,33.8,25.4,17.72,NW,319,5.4,5.4,71,0.00,,---,0.28,VWS V14.00,2013-02-26 03:00:00,
2013-02-25 21:05:00,33.8,25.4,17.72,NNW,334,7.2,7.2,71,0.00,,---,0.28,VWS V14.00,2013-02-26 03:05:00,
2013-02-25 21:10:00,33.8,25.4,17.72,NNW,348,5.4,7.6,71,0.00,,---,0.28,VWS V14.00,2013-02-26 03:10:00,
2013-02-25 21:15:00,33.8,25.4,17.72,NNW,346,7.6,8.1,71,0.00,,---,0.28,VWS V14.00,2013-02-26 03:15:00,
2013-02-25 21:20:00,33.8,25.4,17.72,NW,305,6.3,6.3,71,0.00,,---,0.28,VWS V14.00,2013-02-26 03:20:00,
2013-02-25 21:25:00,33.6,25.2,17.72,NNW,338,3.1,6.3,71,0.00,,---,0.28,VWS V14.00,2013-02-26 03:25:00,
2013-02-25 21:31:00,33.6,25.2,17.72,North,0,4.0,6.3,71,0.00,,---,0.28,VWS V14.00,2013-02-26 03:31:00,
2013-02-25 21:36:00,33.6,25.6,17.72,NNW,339,5.4,5.4,72,0.00,,---,0.28,VWS V14.00,2013-02-26 03:36:00,
2013-02-25 21:41:00,33.4,25.4,17.72,NW,316,5.8,6.3,72,0.00,,---,0.28,VWS V14.00,2013-02-26 03:41:00,
2013-02-25 21:46:00,33.4,25.4,17.72,NNW,331,5.8,5.8,72,0.00,,---,0.28,VWS V14.00,2013-02-26 03:46:00,
2013-02-25 21:51:00,33.4,25.4,17.72,NW,309,5.4,5.4,72,0.00,,---,0.28,VWS V14.00,2013-02-26 03:51:00,
2013-02-25 21:56:00,33.4,25.4,17.72,NW,320,5.8,6.3,72,0.00,,---,0.28,VWS V14.00,2013-02-26 03:56:00,
2013-02-25 22:01:00,33.4,25.4,17.72,NNW,333,8.3,8.3,72,0.00,,---,0.28,VWS V14.00,2013-02-26 04:01:00,
2013-02-25 22:06:00,33.3,25.2,17.72,North,9,6.3,6.3,72,0.00,,---,0.28,VWS V14.00,2013-02-26 04:06:00,
2013-02-25 22:11:00,33.3,25.6,17.72,North,353,2.7,5.4,73,0.00,,---,0.28,VWS V14.00,2013-02-26 04:11:00,
2013-02-25 22:16:00,33.1,25.7,17.72,NNW,331,4.0,4.0,74,0.00,,---,0.28,VWS V14.00,2013-02-26 04:16:00,
2013-02-25 22:21:00,33.1,25.7,17.72,NNW,337,3.6,6.7,74,0.00,,---,0.28,VWS V14.00,2013-02-26 04:21:00,
2013-02-25 22:27:00,32.9,25.9,17.72,NW,316,3.1,4.0,75,0.00,,---,0.28,VWS V14.00,2013-02-26 04:27:00,
2013-02-25 22:32:00,32.7,26.0,17.72,NW,316,5.8,8.7,76,0.00,,---,0.28,VWS V14.00,2013-02-26 04:32:00,
2013-02-25 22:37:00,32.5,25.8,17.72,NNW,329,3.6,7.6,76,0.00,,---,0.28,VWS V14.00,2013-02-26 04:37:00,
2013-02-25 22:42:00,32.5,26.1,17.72,NNW,330,5.8,8.1,77,0.00,,---,0.28,VWS V14.00,2013-02-26 04:42:00,
2013-02-25 22:47:00,32.5,26.1,17.72,WNW,303,3.1,3.1,77,0.00,,---,0.28,VWS V14.00,2013-02-26 04:47:00,
2013-02-25 22:52:00,32.4,26.0,17.72,NW,325,6.3,6.3,77,0.00,,---,0.28,VWS V14.00,2013-02-26 04:52:00,
2013-02-25 22:57:00,32.4,26.0,17.72,NW,313,3.6,3.6,77,0.00,,---,0.28,VWS V14.00,2013-02-26 04:57:00,
2013-02-25 23:00:00,32.4,26.0,17.72,WNW,302,8.7,8.7,77,0.00,,---,0.28,VWS V14.00,2013-02-26 05:00:00,
2013-02-25 23:01:00,32.4,26.0,17.72,NW,315,4.0,8.7,77,0.00,,---,0.28,VWS V14.00,2013-02-26 05:01:00,
2013-02-25 23:06:00,32.2,25.8,17.72,NW,317,5.4,6.3,77,0.00,,---,0.28,VWS V14.00,2013-02-26 05:06:00,
2013-02-25 23:11:00,32.2,25.8,17.72,NNE,27,5.4,8.7,77,0.00,,---,0.28,VWS V14.00,2013-02-26 05:11:00,
2013-02-25 23:17:00,32.0,25.6,17.72,NW,309,5.4,7.6,77,0.00,,---,0.28,VWS V14.00,2013-02-26 05:17:00,
2013-02-25 23:22:00,32.0,25.6,17.72,NNW,335,8.1,8.1,77,0.00,,---,0.28,VWS V14.00,2013-02-26 05:22:00,
2013-02-25 23:27:00,32.0,25.6,17.72,NNW,330,8.1,11.0,77,0.00,,---,0.28,VWS V14.00,2013-02-26 05:27:00,
2013-02-25 23:32:00,32.0,25.6,17.72,North,349,5.4,8.7,77,0.00,,---,0.28,VWS V14.00,2013-02-26 05:32:00,
2013-02-25 23:37:00,32.0,25.3,17.72,NW,317,3.6,6.3,76,0.00,,---,0.28,VWS V14.00,2013-02-26 05:37:00,
2013-02-25 23:42:00,32.0,25.3,17.72,North,353,5.4,5.4,76,0.00,,---,0.28,VWS V14.00,2013-02-26 05:42:00,
2013-02-25 23:47:00,32.0,25.3,17.72,NW,308,4.0,4.0,76,0.00,,---,0.28,VWS V14.00,2013-02-26 05:47:00,
2013-02-25 23:52:00,32.0,25.3,17.72,NW,308,3.6,5.4,76,0.00,,---,0.28,VWS V14.00,2013-02-26 05:52:00,
2013-02-25 23:57:00,32.0,25.3,17.72,NW,324,5.4,5.8,76,0.00,,---,0.28,VWS V14.00,2013-02-26 05:57:00,